Time,TemperatureF,DewpointF,PressureIn,WindDirection,WindDirectionDegrees,WindSpeedMPH,WindSpeedGustMPH,Humidity,HourlyPrecipIn,Conditions,Clouds,dailyrainin,SolarRadiationWatts/m^2,SoftwareType,DateUTC
2013-04-24 00:02:00,48.0,43.0,-100.00,NW,325,7.0,17.0,84,0.01,,,0.02,0.000000,,2013-04-24 05:02:00,
2013-04-24 00:10:00,47.0,45.0,-100.00,NNW,343,10.0,17.0,91,0.02,,,0.04,0.000000,,2013-04-24 05:10:00,
2013-04-24 00:42:00,47.0,45.0,-100.00,NNW,343,10.0,17.0,91,0.02,,,0.04,0.000000,,2013-04-24 05:42:00,
2013-04-24 00:52:00,47.0,45.0,-100.00,NNW,343,10.0,17.0,91,0.02,,,0.04,0.000000,,2013-04-24 05:52:00,
2013-04-24 01:02:00,47.0,45.0,-100.00,NNW,343,10.0,17.0,91,0.02,,,0.04,0.000000,,2013-04-24 06:02:00,
2013-04-24 01:10:00,46.0,42.0,-100.00,NNW,339,11.0,19.0,86,0.00,,,0.04,0.000000,,2013-04-24 06:10:00,
2013-04-24 01:33:00,46.0,42.0,-100.00,NNW,339,11.0,19.0,86,0.00,,,0.04,0.000000,,2013-04-24 06:33:00,
2013-04-24 01:42:00,46.0,42.0,-100.00,NNW,339,11.0,19.0,86,0.00,,,0.04,0.000000,,2013-04-24 06:42:00,
2013-04-24 01:52:00,46.0,42.0,-100.00,NNW,339,11.0,19.0,86,0.00,,,0.04,0.000000,,2013-04-24 06:52:00,
2013-04-24 02:02:00,46.0,42.0,-100.00,NNW,339,11.0,19.0,86,0.00,,,0.04,0.000000,,2013-04-24 07:02:00,
2013-04-24 02:10:00,44.0,43.0,-100.00,NNW,337,12.0,20.0,96,0.00,,,0.04,0.000000,,2013-04-24 07:10:00,
2013-04-24 02:32:00,44.0,43.0,-100.00,NNW,337,12.0,20.0,96,0.00,,,0.04,0.000000,,2013-04-24 07:32:00,
2013-04-24 02:42:00,44.0,43.0,-100.00,NNW,337,12.0,20.0,96,0.00,,,0.04,0.000000,,2013-04-24 07:42:00,
2013-04-24 02:52:00,44.0,43.0,-100.00,NNW,337,12.0,20.0,96,0.00,,,0.04,0.000000,,2013-04-24 07:52:00,
2013-04-24 03:02:00,44.0,43.0,-100.00,NNW,337,12.0,20.0,96,0.00,,,0.04,0.000000,,2013-04-24 08:02:00,
2013-04-24 03:10:00,43.0,42.0,-100.00,NNW,337,10.0,20.0,96,0.09,,,0.13,0.000000,,2013-04-24 08:10:00,
2013-04-24 03:42:00,43.0,42.0,-100.00,NNW,337,10.0,20.0,96,0.09,,,0.13,0.000000,,2013-04-24 08:42:00,
2013-04-24 03:52:00,43.0,42.0,-100.00,NNW,337,10.0,20.0,96,0.09,,,0.13,0.000000,,2013-04-24 08:52:00,
2013-04-24 04:02:00,43.0,42.0,-100.00,NNW,337,10.0,20.0,96,0.09,,,0.13,0.000000,,2013-04-24 09:02:00,
2013-04-24 04:10:00,43.0,41.0,-100.00,NNW,341,9.0,17.0,91,0.01,,,0.14,0.000000,,2013-04-24 09:10:00,
2013-04-24 04:33:00,43.0,41.0,-100.00,NNW,341,9.0,17.0,91,0.01,,,0.14,0.000000,,2013-04-24 09:33:00,
2013-04-24 04:42:00,43.0,41.0,-100.00,NNW,341,9.0,17.0,91,0.01,,,0.14,0.000000,,2013-04-24 09:42:00,
2013-04-24 04:53:00,43.0,41.0,-100.00,NNW,341,9.0,17.0,91,0.01,,,0.14,0.000000,,2013-04-24 09:53:00,
2013-04-24 05:02:00,43.0,41.0,-100.00,NNW,341,9.0,17.0,91,0.01,,,0.14,0.000000,,2013-04-24 10:02:00,
2013-04-24 05:10:00,42.0,39.0,-100.00,NNW,335,10.0,20.0,90,0.00,,,0.14,0.000000,,2013-04-24 10:10:00,
2013-04-24 05:33:00,42.0,39.0,-100.00,NNW,335,10.0,20.0,90,0.00,,,0.14,0.000000,,2013-04-24 10:33:00,
2013-04-24 05:42:00,42.0,39.0,-100.00,NNW,335,10.0,20.0,90,0.00,,,0.14,0.000000,,2013-04-24 10:42:00,
2013-04-24 05:53:00,42.0,39.0,-100.00,NNW,335,10.0,20.0,90,0.00,,,0.14,0.000000,,2013-04-24 10:53:00,
2013-04-24 06:02:00,42.0,39.0,-100.00,NNW,335,10.0,20.0,90,0.00,,,0.14,0.000000,,2013-04-24 11:02:00,
2013-04-24 06:10:00,42.0,38.0,-100.00,NNW,343,10.0,19.0,86,0.00,,,0.14,0.000000,,2013-04-24 11:10:00,
2013-04-24 06:32:00,42.0,38.0,-100.00,NNW,343,10.0,19.0,86,0.00,,,0.14,0.000000,,2013-04-24 11:32:00,
2013-04-24 06:43:00,42.0,38.0,-100.00,NNW,343,10.0,19.0,86,0.00,,,0.14,0.000000,,2013-04-24 11:43:00,
2013-04-24 06:52:00,42.0,38.0,-100.00,NNW,343,10.0,19.0,86,0.00,,,0.14,0.000000,,2013-04-24 11:52:00,
2013-04-24 07:02:00,42.0,38.0,-100.00,NNW,343,10.0,19.0,86,0.00,,,0.14,0.000000,,2013-04-24 12:02:00,
2013-04-24 07:10:00,42.0,38.0,-100.00,NNW,339,10.0,18.0,84,0.00,,,-99.99,3.000000,,2013-04-24 12:10:00,
2013-04-24 07:42:00,42.0,38.0,-100.00,NNW,339,10.0,18.0,84,0.00,,,-99.99,3.000000,,2013-04-24 12:42:00,
2013-04-24 07:52:00,42.0,38.0,-100.00,NNW,339,10.0,18.0,84,0.00,,,-99.99,3.000000,,2013-04-24 12:52:00,
2013-04-24 08:01:00,42.0,38.0,-100.00,NNW,339,10.0,18.0,84,0.00,,,-99.99,3.000000,,2013-04-24 13:01:00,
2013-04-24 09:10:00,43.0,36.0,-100.00,NNW,347,14.0,21.0,77,-99.99,,,0.14,199.000000,,2013-04-24 14:10:00,
2013-04-24 09:42:00,43.0,36.0,-100.00,NNW,347,14.0,21.0,77,-99.99,,,0.14,199.000000,,2013-04-24 14:42:00,
2013-04-24 09:52:00,43.0,36.0,-100.00,NNW,347,14.0,21.0,77,-99.99,,,0.14,199.000000,,2013-04-24 14:52:00,
2013-04-24 10:01:00,43.0,36.0,-100.00,NNW,347,14.0,21.0,77,-99.99,,,0.14,199.000000,,2013-04-24 15:01:00,
2013-04-24 10:10:00,45.0,37.0,-100.00,North,353,14.0,22.0,72,0.00,,,0.14,477.000000,,2013-04-24 15:10:00,
2013-04-24 10:43:00,45.0,37.0,-100.00,North,353,14.0,22.0,72,0.00,,,0.14,477.000000,,2013-04-24 15:43:00,
2013-04-24 10:53:00,45.0,37.0,-100.00,North,353,14.0,22.0,72,0.00,,,0.14,477.000000,,2013-04-24 15:53:00,
2013-04-24 11:03:00,45.0,37.0,-100.00,North,353,14.0,22.0,72,0.00,,,0.14,477.000000,,2013-04-24 16:03:00,
2013-04-24 11:10:00,50.0,39.0,-100.00,North,358,14.0,24.0,67,0.00,,,0.14,819.000000,,2013-04-24 16:10:00,
2013-04-24 11:42:00,50.0,39.0,-100.00,North,358,14.0,24.0,67,0.00,,,0.14,819.000000,,2013-04-24 16:42:00,
2013-04-24 11:53:00,50.0,39.0,-100.00,North,358,14.0,24.0,67,0.00,,,0.14,819.000000,,2013-04-24 16:53:00,
2013-04-24 12:02:00,50.0,39.0,-100.00,North,358,14.0,24.0,67,0.00,,,0.14,819.000000,,2013-04-24 17:02:00,
2013-04-24 12:10:00,54.0,42.0,-100.00,NNE,21,12.0,21.0,63,0.00,,,0.13,981.000000,,2013-04-24 17:10:00,
2013-04-24 12:42:00,54.0,42.0,-100.00,NNE,21,12.0,21.0,63,0.00,,,0.13,981.000000,,2013-04-24 17:42:00,
2013-04-24 12:52:00,54.0,42.0,-100.00,NNE,21,12.0,21.0,63,0.00,,,0.13,981.000000,,2013-04-24 17:52:00,
2013-04-24 13:02:00,54.0,42.0,-100.00,NNE,21,12.0,21.0,63,0.00,,,0.13,981.000000,,2013-04-24 18:02:00,
2013-04-24 13:10:00,56.0,42.0,-100.00,North,6,11.0,20.0,59,0.00,,,0.13,1072.000000,,2013-04-24 18:10:00,
2013-04-24 13:33:00,56.0,42.0,-100.00,North,6,11.0,20.0,59,0.00,,,0.13,1072.000000,,2013-04-24 18:33:00,
2013-04-24 13:43:00,56.0,42.0,-100.00,North,6,11.0,20.0,59,0.00,,,0.13,1072.000000,,2013-04-24 18:43:00,
2013-04-24 13:52:00,56.0,42.0,-100.00,North,6,11.0,20.0,59,0.00,,,0.13,1072.000000,,2013-04-24 18:52:00,
2013-04-24 14:02:00,56.0,42.0,-100.00,North,6,11.0,20.0,59,0.00,,,0.13,1072.000000,,2013-04-24 19:02:00,
2013-04-24 14:10:00,58.0,41.0,-100.00,NNE,18,12.0,20.0,53,0.00,,,0.13,1085.000000,,2013-04-24 19:10:00,
2013-04-24 14:32:00,58.0,41.0,-100.00,NNE,18,12.0,20.0,53,0.00,,,0.13,1085.000000,,2013-04-24 19:32:00,
2013-04-24 14:42:00,58.0,41.0,-100.00,NNE,18,12.0,20.0,53,0.00,,,0.13,1085.000000,,2013-04-24 19:42:00,
2013-04-24 14:52:00,58.0,41.0,-100.00,NNE,18,12.0,20.0,53,0.00,,,0.13,1085.000000,,2013-04-24 19:52:00,
2013-04-24 15:02:00,58.0,41.0,-100.00,NNE,18,12.0,20.0,53,0.00,,,0.13,1085.000000,,2013-04-24 20:02:00,
2013-04-24 15:10:00,61.0,42.0,-100.00,North,2,12.0,20.0,49,0.00,,,0.13,1024.000000,,2013-04-24 20:10:00,
2013-04-24 15:32:00,61.0,42.0,-100.00,North,2,12.0,20.0,49,0.00,,,0.13,1024.000000,,2013-04-24 20:32:00,
2013-04-24 15:42:00,61.0,42.0,-100.00,North,2,12.0,20.0,49,0.00,,,0.13,1024.000000,,2013-04-24 20:42:00,
2013-04-24 15:52:00,61.0,42.0,-100.00,North,2,12.0,20.0,49,0.00,,,0.13,1024.000000,,2013-04-24 20:52:00,
2013-04-24 16:02:00,61.0,42.0,-100.00,North,2,12.0,20.0,49,0.00,,,0.13,1024.000000,,2013-04-24 21:02:00,
2013-04-24 16:10:00,62.0,42.0,-100.00,North,357,9.0,21.0,47,0.00,,,0.13,894.000000,,2013-04-24 21:10:00,
2013-04-24 16:42:00,62.0,42.0,-100.00,North,357,9.0,21.0,47,0.00,,,0.13,894.000000,,2013-04-24 21:42:00,
2013-04-24 16:52:00,62.0,42.0,-100.00,North,357,9.0,21.0,47,0.00,,,0.13,894.000000,,2013-04-24 21:52:00,
2013-04-24 17:03:00,62.0,42.0,-100.00,North,357,9.0,21.0,47,0.00,,,0.13,894.000000,,2013-04-24 22:03:00,
2013-04-24 17:10:00,63.0,42.0,-100.00,NE,42,9.0,18.0,46,0.00,,,0.13,705.000000,,2013-04-24 22:10:00,
2013-04-24 17:33:00,63.0,42.0,-100.00,NE,42,9.0,18.0,46,0.00,,,0.13,705.000000,,2013-04-24 22:33:00,
2013-04-24 17:42:00,63.0,42.0,-100.00,NE,42,9.0,18.0,46,0.00,,,0.13,705.000000,,2013-04-24 22:42:00,
2013-04-24 17:52:00,63.0,42.0,-100.00,NE,42,9.0,18.0,46,0.00,,,0.13,705.000000,,2013-04-24 22:52:00,
2013-04-24 18:02:00,63.0,42.0,-100.00,NE,42,9.0,18.0,46,0.00,,,0.13,705.000000,,2013-04-24 23:02:00,
2013-04-24 18:10:00,63.0,42.0,-100.00,NNE,13,9.0,16.0,47,0.00,,,0.13,465.000000,,2013-04-24 23:10:00,
2013-04-24 18:42:00,63.0,42.0,-100.00,NNE,13,9.0,16.0,47,0.00,,,0.13,465.000000,,2013-04-24 23:42:00,
2013-04-24 18:52:00,63.0,42.0,-100.00,NNE,13,9.0,16.0,47,0.00,,,0.13,465.000000,,2013-04-24 23:52:00,
2013-04-24 19:02:00,63.0,42.0,-100.00,NNE,13,9.0,16.0,47,0.00,,,0.13,465.000000,,2013-04-25 00:02:00,
2013-04-24 19:10:00,61.0,42.0,-100.00,NNE,19,8.0,14.0,49,0.00,,,-99.99,159.000000,,2013-04-25 00:10:00,
2013-04-24 19:32:00,61.0,42.0,-100.00,NNE,19,8.0,14.0,49,0.00,,,-99.99,159.000000,,2013-04-25 00:32:00,
2013-04-24 19:42:00,61.0,42.0,-100.00,NNE,19,8.0,14.0,49,0.00,,,-99.99,159.000000,,2013-04-25 00:42:00,
2013-04-24 19:52:00,61.0,42.0,-100.00,NNE,19,8.0,14.0,49,0.00,,,-99.99,159.000000,,2013-04-25 00:52:00,
2013-04-24 20:01:00,61.0,42.0,-100.00,NNE,19,8.0,14.0,49,0.00,,,-99.99,159.000000,,2013-04-25 01:01:00,
2013-04-24 20:10:00,59.0,41.0,-100.00,North,8,6.0,10.0,51,0.00,,,0.13,22.000000,,2013-04-25 01:10:00,
2013-04-24 20:32:00,59.0,41.0,-100.00,North,8,6.0,10.0,51,0.00,,,0.13,22.000000,,2013-04-25 01:32:00,
2013-04-24 20:42:00,59.0,41.0,-100.00,North,8,6.0,10.0,51,0.00,,,0.13,22.000000,,2013-04-25 01:42:00,
2013-04-24 20:52:00,59.0,41.0,-100.00,North,8,6.0,10.0,51,0.00,,,0.13,22.000000,,2013-04-25 01:52:00,
2013-04-24 21:02:00,59.0,41.0,-100.00,North,8,6.0,10.0,51,0.00,,,0.13,22.000000,,2013-04-25 02:02:00,
2013-04-24 21:10:00,58.0,43.0,-100.00,NNW,347,5.0,8.0,57,0.00,,,0.13,0.000000,,2013-04-25 02:10:00,
2013-04-24 21:32:00,58.0,43.0,-100.00,NNW,347,5.0,8.0,57,0.00,,,0.13,0.000000,,2013-04-25 02:32:00,
2013-04-24 21:42:00,58.0,43.0,-100.00,NNW,347,5.0,8.0,57,0.00,,,0.13,0.000000,,2013-04-25 02:42:00,
2013-04-24 21:52:00,58.0,43.0,-100.00,NNW,347,5.0,8.0,57,0.00,,,0.13,0.000000,,2013-04-25 02:52:00,
2013-04-24 22:02:00,58.0,43.0,-100.00,NNW,347,5.0,8.0,57,0.00,,,0.13,0.000000,,2013-04-25 03:02:00,
2013-04-24 22:10:00,56.0,44.0,-100.00,NNE,19,5.0,9.0,63,0.00,,,0.13,0.000000,,2013-04-25 03:10:00,
2013-04-24 22:33:00,56.0,44.0,-100.00,NNE,19,5.0,9.0,63,0.00,,,0.13,0.000000,,2013-04-25 03:33:00,
2013-04-24 22:43:00,56.0,44.0,-100.00,NNE,19,5.0,9.0,63,0.00,,,0.13,0.000000,,2013-04-25 03:43:00,
2013-04-24 22:52:00,56.0,44.0,-100.00,NNE,19,5.0,9.0,63,0.00,,,0.13,0.000000,,2013-04-25 03:52:00,
2013-04-24 23:03:00,56.0,44.0,-100.00,NNE,19,5.0,9.0,63,0.00,,,0.13,0.000000,,2013-04-25 04:03:00,
2013-04-24 23:10:00,55.0,44.0,-100.00,NNE,23,6.0,9.0,67,0.00,,,0.12,0.000000,,2013-04-25 04:10:00,
2013-04-24 23:33:00,55.0,44.0,-100.00,NNE,23,6.0,9.0,67,0.00,,,0.12,0.000000,,2013-04-25 04:33:00,
2013-04-24 23:43:00,55.0,44.0,-100.00,NNE,23,6.0,9.0,67,0.00,,,0.12,0.000000,,2013-04-25 04:43:00,
2013-04-24 23:52:00,55.0,44.0,-100.00,NNE,23,6.0,9.0,67,0.00,,,0.12,0.000000,,2013-04-25 04:52:00,